| time (UTC) | temp F | wind direction | speed knots | gust knots | rain 1hr in | rain 24hr in | rain mn in | humidity % | barometer mb |
| 20260504110224 | 47 | 113 | 6.1 | 7.0 | 0.00 | 0.00 | 0.00 | 63 | 1018.8 |
| 20260504100142 | 45 | 124 | 4.3 | 4.3 | 0.00 | 0.00 | 0.00 | 66 | 1018.6 |
| 20260504090105 | 45 | 122 | 4.3 | 5.2 | 0.00 | 0.00 | 0.00 | 64 | 1018.7 |
| 20260504081535 | 46 | 120 | 2.6 | 2.6 | 0.00 | 0.00 | 0.00 | 64 | 1018.7 |
| 20260504081031 | 46 | 119 | 2.6 | 4.3 | 0.00 | 0.00 | 0.00 | 64 | 1018.7 |
| 20260504080528 | 46 | 118 | 2.6 | 2.6 | 0.00 | 0.00 | 0.00 | 64 | 1018.8 |
| 20260504050340 | 45 | 119 | 0.9 | 1.7 | 0.00 | 0.00 | 0.00 | 63 | 1019.4 |
| 20260504045837 | 45 | 129 | 0.9 | 0.9 | 0.00 | 0.00 | 0.00 | 64 | 1019.3 |
| 20260504045332 | 45 | 117 | 0.9 | 1.7 | 0.00 | 0.00 | 0.00 | 63 | 1019.5 |
| 20260504044829 | 45 | 98 | 0.9 | 0.9 | 0.00 | 0.00 | 0.00 | 63 | 1019.7 |
| 20260504044327 | 46 | 122 | 1.7 | 1.7 | 0.00 | 0.00 | 0.00 | 66 | 1019.6 |
| 20260504043824 | 46 | 123 | 0.9 | 0.9 | 0.00 | 0.00 | 0.00 | 63 | 1019.9 |
| 20260504043321 | 46 | 134 | 0.9 | 1.7 | 0.00 | 0.00 | 0.00 | 59 | 1019.7 |
| 20260504042818 | 46 | 71 | 0.0 | 0.9 | 0.00 | 0.00 | 0.00 | 60 | 1020.1 |
| 20260504042314 | 46 | 132 | 0.0 | 0.9 | 0.00 | 0.00 | 0.00 | 60 | 1019.9 |
| 20260504041811 | 45 | 105 | 0.0 | 0.9 | 0.00 | 0.00 | 0.00 | 62 | 1019.7 |
| 20260504041307 | 45 | 109 | 0.9 | 0.9 | 0.00 | 0.00 | 0.00 | 62 | 1019.9 |
| 20260504040803 | 45 | 133 | 1.7 | 1.7 | 0.00 | 0.00 | 0.00 | 63 | 1019.7 |
| 20260504040301 | 45 | 113 | 1.7 | 1.7 | 0.00 | 0.00 | 0.00 | 59 | 1019.6 |
| 20260504035756 | 45 | 106 | 0.9 | 0.9 | 0.00 | 0.00 | 0.00 | 61 | 1019.6 |
| 20260504035254 | 45 | 114 | 1.7 | 1.7 | 0.00 | 0.00 | 0.00 | 62 | 1019.5 |
| 20260504034751 | 44 | 105 | 0.9 | 0.9 | 0.00 | 0.00 | 0.00 | 62 | 1019.6 |
| 20260504034249 | 44 | 115 | 1.7 | 1.7 | 0.00 | 0.00 | 0.00 | 63 | 1019.3 |
| 20260504033746 | 44 | 137 | 1.7 | 1.7 | 0.00 | 0.00 | 0.00 | 66 | 1019.5 |
| 20260504033244 | 44 | 122 | 1.7 | 1.7 | 0.00 | 0.00 | 0.00 | 66 | 1019.4 |
| 20260504032740 | 44 | 129 | 1.7 | 1.7 | 0.00 | 0.00 | 0.00 | 65 | 1019.2 |
| 20260504032237 | 44 | 119 | 1.7 | 1.7 | 0.00 | 0.00 | 0.00 | 63 | 1019.2 |
| 20260504031734 | 44 | 119 | 0.9 | 1.7 | 0.00 | 0.00 | 0.00 | 64 | 1019.1 |
| 20260504031232 | 43 | 119 | 1.7 | 1.7 | 0.00 | 0.00 | 0.00 | 64 | 1019.2 |
| 20260504030727 | 43 | 114 | 0.9 | 1.7 | 0.00 | 0.00 | 0.00 | 65 | 1019.3 |
| 20260504030225 | 42 | 109 | 0.9 | 0.9 | 0.00 | 0.00 | 0.00 | 66 | 1019.1 |
| 20260504025721 | 42 | 125 | 1.7 | 1.7 | 0.00 | 0.00 | 0.00 | 68 | 1019.1 |
| 20260504025218 | 42 | 138 | 1.7 | 1.7 | 0.00 | 0.00 | 0.00 | 68 | 1019.2 |
| 20260504024715 | 43 | 123 | 0.9 | 1.7 | 0.00 | 0.00 | 0.00 | 65 | 1019.1 |
| 20260504024211 | 43 | 117 | 0.9 | 0.9 | 0.00 | 0.00 | 0.00 | 64 | 1018.9 |
| 20260504023708 | 43 | 110 | 0.9 | 0.9 | 0.00 | 0.00 | 0.00 | 62 | 1018.9 |
| 20260504023204 | 43 | 113 | 0.9 | 1.7 | 0.00 | 0.00 | 0.00 | 63 | 1019.1 |
| 20260504022700 | 43 | 115 | 0.9 | 0.9 | 0.00 | 0.00 | 0.00 | 62 | 1019.0 |
| 20260504022156 | 43 | 112 | 0.9 | 1.7 | 0.00 | 0.00 | 0.00 | 61 | 1019.1 |
| 20260504021655 | 43 | 125 | 0.9 | 1.7 | 0.00 | 0.00 | 0.00 | 61 | 1019.3 |
| 20260504021151 | 44 | 115 | 0.9 | 0.9 | 0.00 | 0.00 | 0.00 | 61 | 1019.2 |
| 20260504020648 | 44 | 113 | 0.9 | 0.9 | 0.00 | 0.00 | 0.00 | 60 | 1019.0 |
| 20260504020144 | 44 | 107 | 1.7 | 1.7 | 0.00 | 0.00 | 0.00 | 59 | 1018.9 |
| 20260504015641 | 44 | 113 | 0.9 | 0.9 | 0.00 | 0.00 | 0.00 | 60 | 1019.2 |
| 20260504015137 | 45 | 126 | 0.9 | 0.9 | 0.00 | 0.00 | 0.00 | 57 | 1019.2 |
| 20260504014633 | 45 | 127 | 1.7 | 1.7 | 0.00 | 0.00 | 0.00 | 56 | 1019.3 |
| 20260504014130 | 46 | 124 | 0.9 | 0.9 | 0.00 | 0.00 | 0.00 | 55 | 1019.3 |
| 20260504013628 | 47 | 108 | 0.0 | 0.0 | 0.00 | 0.00 | 0.00 | 52 | 1019.1 |
| 20260504013124 | 47 | 100 | 0.0 | 0.9 | 0.00 | 0.00 | 0.00 | 50 | 1019.1 |
| 20260504012622 | 48 | 88 | 0.0 | 0.0 | 0.00 | 0.00 | 0.00 | 48 | 1018.9 |
| 20260504012120 | 48 | 91 | 0.9 | 0.9 | 0.00 | 0.00 | 0.00 | 47 | 1019.1 |
| 20260504011616 | 48 | 350 | 2.6 | 2.6 | 0.00 | 0.00 | 0.00 | 47 | 1018.8 |
| 20260504011113 | 49 | 343 | 0.9 | 1.7 | 0.00 | 0.00 | 0.00 | 47 | 1018.9 |
| 20260504010608 | 49 | 311 | 0.9 | 1.7 | 0.00 | 0.00 | 0.00 | 46 | 1018.7 |
| 20260504010105 | 49 | 355 | 2.6 | 2.6 | 0.00 | 0.00 | 0.00 | 45 | 1018.6 |
| 20260504005601 | 50 | 89 | 0.0 | 0.9 | 0.00 | 0.00 | 0.00 | 45 | 1018.6 |
| 20260504005059 | 50 | 157 | 1.7 | 1.7 | 0.00 | 0.00 | 0.00 | 44 | 1018.7 |
| 20260504004556 | 50 | 70 | 2.6 | 4.3 | 0.00 | 0.00 | 0.00 | 43 | 1018.8 |
| 20260504004053 | 50 | 335 | 3.5 | 4.3 | 0.00 | 0.00 | 0.00 | 43 | 1018.7 |
| 20260504003549 | 50 | 62 | 2.6 | 2.6 | 0.00 | 0.00 | 0.00 | 43 | 1018.5 |
| 20260504003046 | 51 | 338 | 1.7 | 2.6 | 0.00 | 0.00 | 0.00 | 42 | 1018.5 |
| 20260504002543 | 51 | 43 | 1.7 | 1.7 | 0.00 | 0.00 | 0.00 | 42 | 1018.4 |
| 20260504002041 | 51 | 338 | 2.6 | 4.3 | 0.00 | 0.00 | 0.00 | 41 | 1018.4 |
| 20260504001538 | 51 | 281 | 2.6 | 2.6 | 0.00 | 0.00 | 0.00 | 40 | 1018.1 |
| 20260504001034 | 51 | 352 | 6.1 | 8.7 | 0.00 | 0.00 | 0.00 | 40 | 1018.1 |
| 20260504000532 | 51 | 333 | 4.3 | 6.1 | 0.00 | 0.00 | 0.00 | 39 | 1018.2 |
| 20260504000029 | 51 | 70 | 4.3 | 5.2 | 0.00 | 0.00 | 0.00 | 38 | 1018.0 |
| 20260503235527 | 52 | 128 | 4.3 | 5.2 | 0.00 | 0.00 | 0.00 | 39 | 1018.1 |
| 20260503235023 | 52 | 296 | 4.3 | 6.1 | 0.00 | 0.00 | 0.00 | 38 | 1018.0 |
| 20260503234521 | 52 | 294 | 2.6 | 4.3 | 0.00 | 0.00 | 0.00 | 38 | 1017.9 |
| 20260503234020 | 52 | 288 | 5.2 | 6.1 | 0.00 | 0.00 | 0.00 | 37 | 1017.8 |
| 20260503233515 | 53 | 340 | 4.3 | 5.2 | 0.00 | 0.00 | 0.00 | 36 | 1017.8 |
| 20260503233011 | 53 | 281 | 7.8 | 11.3 | 0.00 | 0.00 | 0.00 | 36 | 1017.5 |
| 20260503232509 | 53 | 160 | 4.3 | 6.1 | 0.00 | 0.00 | 0.00 | 35 | 1017.4 |
| 20260503232006 | 54 | 292 | 2.6 | 2.6 | 0.00 | 0.00 | 0.00 | 34 | 1017.5 |
| 20260503231504 | 54 | 328 | 5.2 | 7.0 | 0.00 | 0.00 | 0.00 | 33 | 1017.5 |
| 20260503231000 | 54 | 114 | 4.3 | 6.1 | 0.00 | 0.00 | 0.00 | 33 | 1017.3 |
| 20260503230457 | 54 | 287 | 5.2 | 7.0 | 0.00 | 0.00 | 0.00 | 33 | 1017.3 |
| 20260503225954 | 54 | 326 | 4.3 | 4.3 | 0.00 | 0.00 | 0.00 | 33 | 1017.3 |
| 20260503225451 | 54 | 315 | 9.6 | 12.2 | 0.00 | 0.00 | 0.00 | 32 | 1017.2 |
| 20260503224946 | 54 | 317 | 4.3 | 5.2 | 0.00 | 0.00 | 0.00 | 31 | 1017.2 |
| 20260503224443 | 54 | 318 | 6.1 | 7.8 | 0.00 | 0.00 | 0.00 | 31 | 1017.1 |
| 20260503223941 | 55 | 345 | 4.3 | 6.1 | 0.00 | 0.00 | 0.00 | 32 | 1017.3 |
| 20260503223439 | 54 | 135 | 3.5 | 6.1 | 0.00 | 0.00 | 0.00 | 33 | 1017.3 |
| 20260503222934 | 55 | 238 | 4.3 | 6.1 | 0.00 | 0.00 | 0.00 | 31 | 1017.1 |
| 20260503222433 | 55 | 299 | 3.5 | 4.3 | 0.00 | 0.00 | 0.00 | 31 | 1017.2 |
| 20260503221931 | 55 | 312 | 4.3 | 6.1 | 0.00 | 0.00 | 0.00 | 30 | 1017.3 |
| 20260503221429 | 54 | 268 | 3.5 | 6.1 | 0.00 | 0.00 | 0.00 | 31 | 1017.1 |
| 20260503220925 | 55 | 343 | 10.4 | 11.3 | 0.00 | 0.00 | 0.00 | 30 | 1017.3 |
| 20260503220422 | 55 | 26 | 4.3 | 7.0 | 0.00 | 0.00 | 0.00 | 31 | 1017.3 |
| 20260503215919 | 55 | 273 | 4.3 | 5.2 | 0.00 | 0.00 | 0.00 | 32 | 1017.1 |
| 20260503215416 | 55 | 302 | 8.7 | 11.3 | 0.00 | 0.00 | 0.00 | 30 | 1017.2 |
| 20260503214914 | 55 | 312 | 5.2 | 6.1 | 0.00 | 0.00 | 0.00 | 32 | 1017.2 |
| 20260503214411 | 55 | 28 | 6.1 | 7.8 | 0.00 | 0.00 | 0.00 | 32 | 1017.2 |
| 20260503213908 | 55 | 319 | 7.0 | 8.7 | 0.00 | 0.00 | 0.00 | 31 | 1017.3 |
| 20260503213406 | 54 | 308 | 7.8 | 8.7 | 0.00 | 0.00 | 0.00 | 31 | 1017.3 |
| 20260503212902 | 54 | 284 | 4.3 | 5.2 | 0.00 | 0.00 | 0.00 | 33 | 1017.1 |
| 20260503212400 | 55 | 321 | 7.8 | 8.7 | 0.00 | 0.00 | 0.00 | 32 | 1017.2 |
| 20260503211857 | 54 | 289 | 7.0 | 7.8 | 0.00 | 0.00 | 0.00 | 32 | 1017.2 |
| 20260503211354 | 54 | 288 | 2.6 | 4.3 | 0.00 | 0.00 | 0.00 | 36 | 1017.2 |
| 20260503210848 | 53 | 274 | 3.5 | 5.2 | 0.00 | 0.00 | 0.00 | 37 | 1017.2 |
| 20260503210347 | 54 | 317 | 9.6 | 12.2 | 0.00 | 0.00 | 0.00 | 33 | 1017.3 |
| 20260503205841 | 53 | 340 | 4.3 | 6.1 | 0.00 | 0.00 | 0.00 | 36 | 1017.2 |
| 20260503205338 | 54 | 328 | 5.2 | 7.0 | 0.00 | 0.00 | 0.00 | 36 | 1017.2 |
| 20260503204834 | 53 | 337 | 7.8 | 9.6 | 0.00 | 0.00 | 0.00 | 36 | 1017.2 |
| 20260503204332 | 52 | 311 | 7.0 | 9.6 | 0.00 | 0.00 | 0.00 | 36 | 1017.5 |
| 20260503203829 | 53 | 283 | 6.1 | 7.0 | 0.00 | 0.00 | 0.00 | 36 | 1017.5 |
| 20260503203327 | 53 | 1 | 6.1 | 7.0 | 0.00 | 0.00 | 0.00 | 35 | 1017.5 |
| 20260503202823 | 53 | 330 | 6.1 | 8.7 | 0.00 | 0.00 | 0.00 | 35 | 1017.6 |
| 20260503202321 | 54 | 346 | 9.6 | 11.3 | 0.00 | 0.00 | 0.00 | 37 | 1017.4 |
| 20260503201820 | 52 | 334 | 3.5 | 4.3 | 0.00 | 0.00 | 0.00 | 39 | 1017.7 |
| 20260503201316 | 51 | 354 | 1.7 | 1.7 | 0.00 | 0.00 | 0.00 | 38 | 1017.7 |
| 20260503200814 | 51 | 256 | 3.5 | 5.2 | 0.00 | 0.00 | 0.00 | 40 | 1017.7 |
| 20260503200309 | 51 | 316 | 2.6 | 2.6 | 0.00 | 0.00 | 0.00 | 40 | 1017.6 |
| 20260503195807 | 51 | 301 | 3.5 | 6.1 | 0.00 | 0.00 | 0.00 | 40 | 1017.9 |
| 20260503195304 | 51 | 351 | 7.8 | 8.7 | 0.00 | 0.00 | 0.00 | 38 | 1017.8 |
| 20260503194801 | 51 | 142 | 2.6 | 2.6 | 0.00 | 0.00 | 0.00 | 41 | 1018.0 |
| 20260503194256 | 51 | 358 | 4.3 | 6.1 | 0.00 | 0.00 | 0.00 | 38 | 1018.0 |
| 20260503193753 | 50 | 291 | 3.5 | 4.3 | 0.00 | 0.00 | 0.00 | 40 | 1018.0 |
| 20260503193249 | 51 | 279 | 4.3 | 7.0 | 0.00 | 0.00 | 0.00 | 41 | 1017.9 |
| 20260503192745 | 51 | 6 | 7.8 | 9.6 | 0.00 | 0.00 | 0.00 | 41 | 1018.0 |
| 20260503192240 | 50 | 17 | 7.0 | 11.3 | 0.00 | 0.00 | 0.00 | 40 | 1018.3 |
| 20260503191737 | 50 | 15 | 3.5 | 4.3 | 0.00 | 0.00 | 0.00 | 42 | 1018.1 |
| 20260503191234 | 50 | 358 | 5.2 | 7.0 | 0.00 | 0.00 | 0.00 | 42 | 1018.3 |
| 20260503190731 | 50 | 313 | 5.2 | 7.0 | 0.00 | 0.00 | 0.00 | 43 | 1018.4 |
| 20260503190228 | 50 | 25 | 5.2 | 7.0 | 0.00 | 0.00 | 0.00 | 43 | 1018.4 |
| 20260503185725 | 50 | 308 | 6.1 | 7.8 | 0.00 | 0.00 | 0.00 | 41 | 1018.2 |
| 20260503185220 | 50 | 57 | 2.6 | 5.2 | 0.00 | 0.00 | 0.00 | 45 | 1018.4 |
| 20260503184715 | 49 | 41 | 7.0 | 9.6 | 0.00 | 0.00 | 0.00 | 43 | 1018.8 |
| 20260503184212 | 49 | 344 | 4.3 | 6.1 | 0.00 | 0.00 | 0.00 | 45 | 1018.6 |
| 20260503183708 | 49 | 42 | 3.5 | 4.3 | 0.00 | 0.00 | 0.00 | 46 | 1018.7 |
| 20260503183206 | 49 | 19 | 4.3 | 5.2 | 0.00 | 0.00 | 0.00 | 42 | 1018.5 |
| 20260503182704 | 50 | 275 | 4.3 | 5.2 | 0.00 | 0.00 | 0.00 | 44 | 1018.7 |
| 20260503182202 | 51 | 42 | 3.5 | 4.3 | 0.00 | 0.00 | 0.00 | 48 | 1018.5 |
| 20260503181658 | 49 | 32 | 4.3 | 6.1 | 0.00 | 0.00 | 0.00 | 48 | 1018.6 |
| 20260503181155 | 49 | 280 | 5.2 | 7.0 | 0.00 | 0.00 | 0.00 | 45 | 1018.6 |
| 20260503180652 | 48 | 291 | 5.2 | 6.1 | 0.00 | 0.00 | 0.00 | 47 | 1018.7 |
| 20260503180150 | 49 | 358 | 6.1 | 7.8 | 0.00 | 0.00 | 0.00 | 47 | 1018.8 |
| 20260503175647 | 49 | 275 | 5.2 | 7.0 | 0.00 | 0.00 | 0.00 | 47 | 1018.7 |
| 20260503175144 | 49 | 338 | 3.5 | 6.1 | 0.00 | 0.00 | 0.00 | 47 | 1018.6 |
| 20260503174640 | 49 | 243 | 7.0 | 8.7 | 0.00 | 0.00 | 0.00 | 45 | 1018.7 |
| 20260503174138 | 50 | 278 | 7.0 | 8.7 | 0.00 | 0.00 | 0.00 | 47 | 1018.6 |
| 20260503173632 | 49 | 261 | 5.2 | 7.0 | 0.00 | 0.00 | 0.00 | 47 | 1018.6 |
| 20260503173129 | 48 | 338 | 3.5 | 6.1 | 0.00 | 0.00 | 0.00 | 47 | 1018.8 |
| 20260503172627 | 48 | 290 | 6.1 | 9.6 | 0.00 | 0.00 | 0.00 | 50 | 1018.8 |
| 20260503172124 | 48 | 346 | 7.0 | 7.8 | 0.00 | 0.00 | 0.00 | 48 | 1019.0 |
| 20260503171620 | 48 | 284 | 7.8 | 9.6 | 0.00 | 0.00 | 0.00 | 47 | 1018.5 |
| 20260503171117 | 49 | 289 | 7.0 | 9.6 | 0.00 | 0.00 | 0.00 | 49 | 1018.6 |
| 20260503170615 | 48 | 283 | 6.1 | 8.7 | 0.00 | 0.00 | 0.00 | 46 | 1018.7 |
| 20260503170111 | 49 | 280 | 6.1 | 7.8 | 0.00 | 0.00 | 0.00 | 47 | 1018.7 |
| 20260503151006 | 46 | 35 | 2.6 | 4.3 | 0.00 | 0.00 | 0.00 | 50 | 1018.8 |
| 20260503150503 | 46 | 301 | 6.1 | 7.0 | 0.00 | 0.00 | 0.00 | 51 | 1018.5 |
| 20260503131356 | 43 | 344 | 2.6 | 2.6 | 0.00 | 0.00 | 0.00 | 67 | 1019.3 |
| 20260503130853 | 43 | 316 | 2.6 | 2.6 | 0.00 | 0.00 | 0.00 | 68 | 1019.4 |
| 20260503130350 | 43 | 40 | 0.9 | 1.7 | 0.00 | 0.00 | 0.00 | 69 | 1019.3 |